Flag Weather past 2 weeks in Davenport, Iowa, U.S.A.

Now
37 °F

Passing clouds.


Feels Like: 32 °F
Forecast: 34 / 55 °F
Wind: 6 mph from Southeast

Location: Davenport Municipal Airport

Current Time: Oct 30, 2014 at 8:57:22 AM

Latest Report: Oct 30, 2014 at 7:52 AM


Visibility: 10 mi

Pressure: 30.12 "Hg

Humidity: 86%

Dew point: 33 °F

Location of DavenportLocation

Historic Weather in Davenport — Graph

°F

Davenport temperature yesterday

Maximum temperature yesterday: 51 °F (at 2:52 PM)
Minimum temperature yesterday: 33 °F (at 11:52 PM)
Average temperature yesterday: 44 °F

Past Weeks' High & Low Weather Summary

 TemperatureHumidityPressure
High78 °F (Oct 27, 1:52 PM)97% (Oct 16, 3:52 AM)30.36 "Hg (Oct 16, 3:52 AM)
Low32 °F (Oct 30, 12:52 AM)21% (Oct 25, 3:52 PM)29.54 "Hg (Oct 27, 2:52 PM)
Average52 °F68%29.99 "Hg
* Reported Oct 15 6:52 AM — Oct 30 6:52 AM, Davenport, Weather by CustomWeather, © 2014

Note: Actual official high and low records may vary slightly from our data, if they occured in-between our weather recording intervals... More about our weather records

Advertising

Davenport weather history for previous 24 hours

 ConditionsComfort  
Time TempWeatherWind HumidityBarometerVisibility
6:52 AM
Oct 30
35 °FPassing clouds.5 mph88%30.13 "Hg10 mi
5:52 AM35 °FPassing clouds.3 mph85%30.14 "Hg10 mi
4:52 AM33 °FClear.No wind85%30.13 "Hg10 mi
3:52 AM33 °FClear.3 mph82%30.13 "Hg10 mi
2:52 AM32 °FClear.3 mph82%30.14 "Hg10 mi
1:52 AM32 °FClear.No wind82%30.15 "Hg10 mi
12:52 AM32 °FClear.No wind79%30.16 "Hg10 mi
11:52 PM
Oct 29
33 °FClear.No wind82%30.16 "Hg10 mi
10:52 PM35 °FClear.3 mph75%30.16 "Hg10 mi
9:52 PM37 °FClear.No wind73%30.16 "Hg10 mi
8:52 PM37 °FClear.No wind73%30.16 "Hg10 mi
7:52 PM39 °FClear.No wind67%30.16 "Hg10 mi
6:52 PM42 °FSunny.5 mph60%30.16 "Hg10 mi
5:52 PM47 °FSunny.5 mph52%30.15 "Hg10 mi
4:52 PM50 °FSunny.10 mph44%30.14 "Hg10 mi
3:52 PM51 °FSunny.10 mph42%30.14 "Hg10 mi
2:52 PM51 °FPassing clouds.12 mph44%30.14 "Hg10 mi
1:52 PM50 °FScattered clouds.12 mph46%30.14 "Hg10 mi
12:52 PM49 °FOvercast.13 mph48%30.15 "Hg10 mi
11:52 AM48 °FScattered clouds.14 mph50%30.16 "Hg10 mi
10:52 AM46 °FBroken clouds.13 mph54%30.16 "Hg10 mi
9:52 AM45 °FOvercast.14 mph58%30.14 "Hg10 mi
8:52 AM43 °FOvercast.13 mph62%30.12 "Hg10 mi
Weather by CustomWeather, © 2014

See weather overviewHow to use our weather pages